Tracking 29967 objects as of 5-Dec-2024
HD Live streaming from Space Station
objects crossing your sky now

CZ-3C DEB

Track CZ-3C DEB now!


NORAD ID: 40194
Int'l Code: 2012-008D
Perigee: 2,765.9 km
Apogee: 35,527.3 km
Inclination: 20.3 °
Period: 676.1 minutes
Semi major axis: 25517 km
RCS: Unknown
Launch date: February 24, 2012
Source: People's Republic of China (PRC)
Launch site: Xichang Space Center, China (XSC)

Note: This is SATELLITE DEBRIS
Your satellite tracking list
Your tracking list is empty




NASA's NSSDC Master Catalog

Two Line Element Set (TLE):
1 40194U 12008D   24338.52331159 -.00000061  00000-0  00000+0 0  9995
2 40194  20.3335 101.0642 6419356 209.8606  88.8485  2.12982147 91473
Source of the keplerian elements: AFSPC